Hayward, WI

4:20 AM CDT on August 18, 2017 (GMT -0500)
Sawyer County

Weather History for KHYR - December, 2013

Change the Weather History Date:

Wednesday, December 4, 2013

  Actual Average Record
Temperature  
Mean Temperature 26 °F -  
Max Temperature 32 °F 35 °F 50 °F (1998)
Min Temperature 21 °F 15 °F -2 °F (2006)
Degree Days  
Heating Degree Days 38    
Moisture  
Dew Point 26 °F    
Average Humidity 89    
Maximum Humidity 96    
Minimum Humidity 80    
Precipitation  
Precipitation 0.83 in - - ()
Sea Level Pressure  
Sea Level Pressure 29.59 in    
Wind  
Wind Speed 8 mph (NE)    
Max Wind Speed 14 mph    
Max Gust Speed 23 mph    
Visibility 4 miles    
Events Fog , Rain , Snow    
Averages and records for this station are not official NWS values.
T = Trace of Precipitation, MM = Missing Value Source: NWS Daily Summary

Daily Weather History Graph

Daily Weather History Graph

Search for Another Location

Airport or City:

Trip Planner

Search our weather history database for the weather conditions in past years. The results will help you decide how hot, cold, wet, or windy it might be!

Date:

Astronomy

Dec. 04, 2013 Rise Set
Actual Time 7:31 AM CST 4:21 PM CST
Civil Twilight 6:56 AM CST 4:55 PM CST
Nautical Twilight 6:19 AM CST 5:32 PM CST
Astronomical Twilight 5:43 AM CST 6:08 PM CST
Moon 8:57 AM CST (12/4) 6:34 PM CST (12/4)
Length of Visible Light 9h 58m
Length of Day
8h 50m
Waxing Crescent, 4% of the Moon is Illuminated
Dec 4
Waxing Crescent
Dec 9
First Quarter
Dec 17
Full
Dec 25
Last Quarter
Jan 1
New

Hourly Weather History & Observations

Time (CST) Temp. Windchill Dew Point Humidity Pressure Visibility Wind Dir Wind Speed Gust Speed Precip Events Conditions
12:26 AM 26.6 °F 16.8 °F 21.2 °F 80% 29.83 in 3.0 mi NE 10.4 mph 17.3 mph 0.00 in Snow Light Snow
12:53 AM 26.1 °F 17.6 °F 21.9 °F 84% 29.88 in 9.0 mi ENE 8.1 mph - 0.00 in   Overcast
1:26 AM 26.6 °F 17.5 °F 21.2 °F 80% 29.83 in 10.0 mi NE 9.2 mph - N/A   Overcast
1:53 AM 26.1 °F 18.4 °F 21.9 °F 84% 29.88 in 10.0 mi ENE 6.9 mph - N/A   Overcast
2:53 AM 26.1 °F 17.6 °F 21.9 °F 84% 29.87 in 10.0 mi NE 8.1 mph - N/A   Overcast
3:53 AM 26.1 °F 14.5 °F 21.9 °F 84% 29.85 in 10.0 mi NE 13.8 mph - N/A   Overcast
4:38 AM 26.6 °F 17.5 °F 21.2 °F 80% 29.79 in 2.0 mi NE 9.2 mph - 0.00 in Snow Light Snow
4:45 AM 26.6 °F 16.8 °F 21.2 °F 80% 29.78 in 1.2 mi NE 10.4 mph - 0.00 in Snow Light Snow
4:53 AM 26.1 °F 16.8 °F 23.0 °F 88% 29.83 in 1.0 mi ENE 9.2 mph - 0.01 in Snow Light Snow
4:59 AM 26.6 °F 19.1 °F 23.0 °F 86% 29.77 in 1.2 mi ENE 6.9 mph - 0.00 in Snow Light Snow
5:19 AM 26.6 °F 18.2 °F 23.0 °F 86% 29.77 in 1.0 mi NE 8.1 mph - 0.00 in Snow Light Snow
5:34 AM 26.6 °F 18.2 °F 23.0 °F 86% 29.76 in 1.5 mi ENE 8.1 mph - 0.01 in Snow Light Snow
5:45 AM 26.6 °F 18.2 °F 23.0 °F 86% 29.76 in 2.5 mi ENE 8.1 mph - 0.01 in Snow Light Snow
5:53 AM 26.1 °F 16.8 °F 23.0 °F 88% 29.81 in 3.0 mi NE 9.2 mph - 0.01 in Snow Light Snow
6:01 AM 26.6 °F 16.2 °F 23.0 °F 86% 29.75 in 2.5 mi ENE 11.5 mph - 0.00 in Snow Light Snow
6:09 AM 26.6 °F 18.2 °F 23.0 °F 86% 29.75 in 1.2 mi NE 8.1 mph - 0.00 in Snow Light Snow
6:32 AM 26.6 °F 16.8 °F 23.0 °F 86% 29.75 in 2.5 mi ENE 10.4 mph - 0.00 in Snow Light Snow
6:53 AM 26.1 °F 16.8 °F 23.0 °F 88% 29.79 in 1.5 mi NE 9.2 mph - 0.00 in Snow Light Snow
7:03 AM 26.6 °F 16.8 °F 23.0 °F 86% 29.74 in 1.5 mi ENE 10.4 mph - 0.00 in Snow Light Snow
7:53 AM 26.1 °F 16.2 °F 23.0 °F 88% 29.78 in 1.0 mi ENE 10.4 mph - 0.03 in Snow Light Snow
8:05 AM 26.6 °F 18.2 °F 23.0 °F 86% 29.72 in 0.5 mi NE 8.1 mph - 0.02 in Fog , Snow Snow
8:53 AM 27.0 °F 17.3 °F 24.1 °F 89% 29.75 in 0.5 mi ENE 10.4 mph - 0.05 in Fog , Snow Snow
9:28 AM 26.6 °F 16.8 °F 24.8 °F 93% 29.68 in 1.0 mi NE 10.4 mph - 0.02 in Snow Light Snow
9:35 AM 26.6 °F 16.8 °F 24.8 °F 93% 29.68 in 1.5 mi NE 10.4 mph - 0.02 in Snow Light Snow
9:53 AM 28.0 °F 21.7 °F 24.1 °F 85% 29.74 in 1.2 mi NE 5.8 mph - 0.03 in Snow Light Snow
10:02 AM 28.4 °F 23.3 °F 24.8 °F 86% 29.69 in 0.8 mi Variable 4.6 mph - 0.00 in Snow Light Snow
10:49 AM 28.4 °F 20.4 °F 24.8 °F 86% 29.66 in 0.5 mi ENE 8.1 mph - 0.05 in Fog , Snow Snow
10:53 AM 28.0 °F 20.8 °F 25.0 °F 88% 29.71 in 0.2 mi ENE 6.9 mph - 0.06 in Fog , Snow Snow
11:27 AM 28.4 °F 21.2 °F 24.8 °F 86% 29.62 in 1.0 mi ENE 6.9 mph - 0.04 in Snow Light Snow
11:33 AM 28.4 °F 19.1 °F 24.8 °F 86% 29.61 in 2.0 mi ENE 10.4 mph 16.1 mph 0.05 in Snow Light Snow
11:46 AM 28.4 °F 18.5 °F 24.8 °F 86% 29.60 in 3.0 mi ENE 11.5 mph - 0.06 in Rain Light Freezing Rain
11:53 AM 28.9 °F 21.1 °F 26.1 °F 89% 29.64 in 3.0 mi ENE 8.1 mph - 0.06 in Rain Light Freezing Rain
12:20 PM 30.2 °F 20.8 °F 26.6 °F 86% 29.54 in 5.0 mi ENE 11.5 mph 20.7 mph 0.02 in Rain Light Freezing Rain
12:41 PM 30.2 °F 20.8 °F 26.6 °F 86% 29.53 in 5.0 mi ENE 11.5 mph 20.7 mph 0.04 in Rain Light Freezing Rain
12:53 PM 30.0 °F 20.5 °F 27.0 °F 88% 29.57 in 5.0 mi ENE 11.5 mph - 0.05 in Rain Light Freezing Rain
1:21 PM 30.2 °F 23.4 °F 28.4 °F 93% 29.50 in 5.0 mi ENE 6.9 mph - 0.04 in Rain Light Freezing Rain
1:37 PM 30.2 °F 25.4 °F 28.4 °F 93% 29.49 in 4.0 mi ENE 4.6 mph - 0.06 in   Overcast
1:49 PM 30.2 °F 21.9 °F 28.4 °F 93% 29.49 in - ENE 9.2 mph - 0.09 in   Unknown
1:53 PM 32.0 °F 26.4 °F 28.0 °F 85% 29.53 in 4.0 mi ENE 5.8 mph - 0.09 in   Mist
2:15 PM 32.0 °F 26.4 °F 28.4 °F 87% 29.47 in 4.0 mi ENE 5.8 mph - 0.03 in   Overcast
2:36 PM 32.0 °F 25.6 °F 30.2 °F 93% 29.45 in 4.0 mi NE 6.9 mph - 0.05 in   Overcast
2:53 PM 32.0 °F 27.5 °F 30.0 °F 92% 29.49 in 4.0 mi NE 4.6 mph - 0.08 in   Overcast
3:03 PM 32.0 °F - 30.2 °F 93% 29.45 in 3.0 mi Calm Calm - 0.01 in   Overcast
3:27 PM 32.0 °F 27.5 °F 30.2 °F 93% 29.44 in 3.0 mi NE 4.6 mph - 0.06 in Snow Light Snow
3:38 PM 32.0 °F 28.7 °F 30.2 °F 93% 29.44 in 1.8 mi NE 3.5 mph - 0.07 in Snow Light Snow
3:48 PM 32.0 °F 28.7 °F 30.2 °F 93% 29.44 in 0.8 mi NE 3.5 mph - 0.09 in Snow Light Snow
3:53 PM 32.0 °F 27.5 °F 30.9 °F 96% 29.48 in 0.5 mi NE 4.6 mph - 0.11 in Fog , Snow Snow
4:20 PM 32.0 °F 27.5 °F 30.2 °F 93% 29.42 in 0.8 mi NE 4.6 mph - 0.05 in Snow Light Snow
4:53 PM 32.0 °F 27.5 °F 30.9 °F 96% 29.46 in 0.8 mi NE 4.6 mph - 0.10 in Snow Light Snow
5:39 PM 32.0 °F - 30.2 °F 93% 29.39 in 0.8 mi Calm Calm - 0.07 in Snow Light Snow
5:51 PM 32.0 °F 28.7 °F 30.2 °F 93% 29.39 in 1.0 mi NE 3.5 mph - 0.09 in Snow Light Snow
5:53 PM 32.0 °F 28.7 °F 30.9 °F 96% 29.43 in 1.0 mi NE 3.5 mph - 0.09 in Snow Light Snow
6:04 PM 32.0 °F - 30.2 °F 93% 29.39 in 1.0 mi Calm Calm - 0.01 in Snow Light Snow
6:42 PM 32.0 °F - 30.2 °F 93% 29.38 in 1.2 mi Calm Calm - 0.04 in Snow Light Snow
6:53 PM 32.0 °F - 30.9 °F 96% 29.42 in 1.5 mi Calm Calm - 0.05 in Snow Light Snow
7:16 PM 32.0 °F - 30.2 °F 93% 29.36 in 1.5 mi Calm Calm - 0.01 in Snow Light Snow
7:28 PM 32.0 °F - 30.2 °F 93% 29.34 in 3.0 mi Calm Calm - 0.01 in Snow Light Snow
7:48 PM 32.0 °F - 30.2 °F 93% 29.34 in 7.0 mi Calm Calm - 0.01 in   Overcast
7:53 PM 32.0 °F 28.7 °F 30.9 °F 96% 29.38 in 8.0 mi South 3.5 mph - 0.01 in   Overcast
8:27 PM 32.0 °F 26.4 °F 30.2 °F 93% 29.36 in 8.0 mi SW 5.8 mph - 0.00 in Snow Light Snow
8:53 PM 30.9 °F 23.5 °F 28.9 °F 92% 29.42 in 7.0 mi WSW 8.1 mph 23.0 mph 0.00 in Snow Light Snow
9:22 PM 28.4 °F 19.1 °F 26.6 °F 93% 29.39 in 9.0 mi West 10.4 mph 21.9 mph 0.00 in   Overcast
9:53 PM 28.9 °F 23.9 °F 27.0 °F 92% 29.44 in 10.0 mi WSW 4.6 mph 16.1 mph 0.00 in   Overcast
10:53 PM 25.0 °F 15.5 °F 23.0 °F 92% 29.47 in 10.0 mi WSW 9.2 mph - 0.00 in   Overcast
11:50 PM 21.2 °F 11.7 °F 19.4 °F 93% 29.47 in 10.0 mi WSW 8.1 mph 19.6 mph 0.00 in   Overcast
11:53 PM 21.9 °F 11.7 °F 19.9 °F 92% 29.53 in 10.0 mi WSW 9.2 mph 19.6 mph 0.00 in   Overcast